Powrót do katalogu

CZ-6A DEB

AktywnySSO
NORAD 55887·DEBRIS·🇨🇳 China

Wystrzelony Nov 11, 2022 z Taiyuan Satellite Launch Center

Loading…

Następne Przeloty (najbliższe 24 godziny)

TLE

ŚwieżeSource: Space-Track

Epoka: Sep 14, 2026, 00:19 UTC

1 55887U 22151AAK 26257.01337267  .00003723  00000-0  13782-2 0  9993
2 55887  98.7864 280.7407 0051047  58.6259 301.9904 14.32199645193853

Śledź CZ-6A DEB w czasie rzeczywistym z AllMySat

Download on the App Store